Location: Bussy-Saint-Georges
(48.8410°N, 2.7017°E)
Time: 16:09:18
(UTC+00:00)

Cosmos 1758 - Pass Details

Date: 18 October 2021
Orbit: 539 x 560 km, 82.5° (Epoch: 29 November)

Event Time Altitude Azimuth Distance (km) Brightness Sun altitude
Rises 17:54:00 0° 198° (SSW) 2,703 7.1 -10.7°
Reaches altitude 10° 17:56:11 10° 203° (SSW) 1,811 6.3 -11.0°
Maximum altitude 18:00:06 57° 282° (WNW) 647 4.0 -11.7°
Drops below altitude 10° 18:04:02 10° 2° (N) 1,818 5.9 -12.3°
Sets 18:06:14 0° 7° (N) 2,713 6.8 -12.7°
